Terug naar catalogus

ONEWEB-0637

ActiefCommunicatiePO
NORAD 56078·PAYLOAD·🇬🇧 United Kingdom

Gelanceerd Mar 26, 2023 vanaf Satish Dhawan Space Centre

Loading…

Volgende Passages (komende 24 uur)

TLE

VersSource: CelesTrak SupGP

Epoch: Sep 14, 2026, 16:05 UTC

1 56078C 23043AJ  26257.67064074 -.00000122  00000+0 -32555-3 0  2570
2 56078  87.8976 241.3698 0002058  94.3856   6.4296 13.15545704    19

Volg ONEWEB-0637 in realtime met AllMySat

Download on the App Store